Weather History for KAKO - January, 2014

Change the Weather History Date:

Wednesday, January 1, 2014

  Actual Average Record
Temperature  
Mean Temperature 26 °F 28 °F  
Max Temperature 38 °F 40 °F 68 °F (1997)
Min Temperature 14 °F 16 °F -18 °F (1942)
Degree Days  
Heating Degree Days 39    
Month to date heating degree days 39  
Cooling Degree Days 0    
Month to date cooling degree days 0  
Moisture  
Dew Point 24 °F    
Average Humidity 76    
Maximum Humidity 100    
Minimum Humidity 52    
Precipitation  
Precipitation 0.07 in 0.01 in 0.33 in (1960)
Month to date precipitation 0.07 0.01  
Year to date precipitation 0.07 0.01  
Sea Level Pressure  
Sea Level Pressure 30.16 in    
Wind  
Wind Speed 14 mph (NNW)    
Max Wind Speed 26 mph    
Max Gust Speed 31 mph    
Visibility 5 miles    
Events Fog , Rain , Snow    
T = Trace of Precipitation, MM = Missing Value Source: NWS Daily Summary

Daily Weather History Graph

Daily Weather History Graph

Search for Another Location

Airport or City:

Trip Planner

Search our weather history database for the weather conditions in past years. The results will help you decide how hot, cold, wet, or windy it might be!

Date:

Astronomy

Jan. 01, 2014 Rise Set
Actual Time 7:15 AM MST 4:37 PM MST
Civil Twilight 6:44 AM MST 5:08 PM MST
Nautical Twilight 6:10 AM MST 5:42 PM MST
Astronomical Twilight 5:37 AM MST 6:15 PM MST
Moon 7:07 AM MST (1/1) 5:25 PM MST (1/1)
Length of Visible Light 10h 23m
Length of Day
9h 22m
New Moon, 0% of the Moon is Illuminated
Jan 1
New Moon
Jan 7
First Quarter
Jan 15
Full
Jan 23
Last Quarter
Jan 30
New

Hourly Weather History & Observations

Time (MST) Temp. Windchill Dew Point Humidity Pressure Visibility Wind Dir Wind Speed Gust Speed Precip Events Conditions
12:53 AM 36.0 °F 28.5 °F 21.9 °F 57% 29.85 in 10.0 mi West 10.4 mph - N/A   Overcast
1:53 AM 35.1 °F 26.9 °F 21.9 °F 59% 29.88 in 10.0 mi North 11.5 mph - N/A   Overcast
2:53 AM 37.0 °F 27.0 °F 30.9 °F 79% 29.88 in 10.0 mi NNE 18.4 mph 26.5 mph N/A   Scattered Clouds
3:53 AM 36.0 °F 28.0 °F 30.9 °F 82% 29.91 in 10.0 mi North 11.5 mph - N/A   Overcast
4:53 AM 35.1 °F 26.4 °F 32.0 °F 89% 29.96 in 10.0 mi North 12.7 mph - 0.00 in Rain Light Rain
5:10 AM 37.0 °F 28.1 °F 32.0 °F 82% 29.94 in 10.0 mi NNW 15.0 mph 21.9 mph 0.00 in Rain Light Rain
5:48 AM 33.8 °F 24.3 °F 32.0 °F 93% 29.94 in 10.0 mi NNW 13.8 mph - 0.01 in Rain Light Rain
5:53 AM 33.1 °F 23.9 °F 32.0 °F 96% 29.97 in 10.0 mi NNW 12.7 mph - 0.01 in Rain Light Rain
6:02 AM 33.1 °F 24.4 °F 32.0 °F 96% 29.95 in 10.0 mi NNW 11.5 mph - 0.00 in   Overcast
6:41 AM 32.0 °F 20.5 °F 30.9 °F 96% 29.97 in 2.5 mi North 18.4 mph 23.0 mph 0.01 in Snow Light Snow
6:53 AM 30.9 °F 19.1 °F 30.0 °F 96% 30.04 in 4.0 mi North 18.4 mph - 0.01 in Snow Light Snow
7:12 AM 30.0 °F 17.5 °F 28.0 °F 92% 30.01 in 2.5 mi North 19.6 mph - 0.00 in Snow Light Snow
7:22 AM 28.9 °F 16.1 °F 28.0 °F 96% 30.02 in 1.5 mi North 19.6 mph 26.5 mph 0.00 in Snow Light Snow
7:46 AM 28.0 °F 14.6 °F 27.0 °F 96% 30.04 in 1.0 mi North 20.7 mph - 0.00 in Snow Light Snow
7:53 AM 28.0 °F 14.9 °F 27.0 °F 96% 30.11 in 0.8 mi North 19.6 mph - 0.00 in Snow Light Snow
8:05 AM 27.0 °F 12.2 °F 26.1 °F 96% 30.06 in 1.0 mi North 24.2 mph - 0.00 in Snow Light Snow
8:11 AM 27.0 °F 13.5 °F 26.1 °F 96% 30.07 in 0.8 mi North 19.6 mph 31.1 mph 0.00 in Snow Light Snow
8:20 AM 28.0 °F 14.6 °F 26.1 °F 92% 30.07 in 1.0 mi North 20.7 mph 28.8 mph 0.00 in Snow Light Snow
8:24 AM 27.0 °F 13.5 °F 26.1 °F 96% 30.08 in 1.5 mi North 19.6 mph 28.8 mph 0.00 in Snow Light Snow
8:42 AM 27.0 °F 13.9 °F 26.1 °F 96% 30.09 in 1.2 mi North 18.4 mph - 0.00 in Snow Light Snow
8:53 AM 27.0 °F 14.7 °F 25.0 °F 92% 30.17 in 0.8 mi North 16.1 mph - 0.00 in Snow Light Snow
9:10 AM 27.0 °F 14.7 °F 25.0 °F 92% 30.11 in 1.2 mi North 16.1 mph - 0.00 in Snow Light Snow
9:16 AM 26.1 °F 13.1 °F 25.0 °F 96% 30.11 in 2.0 mi North 17.3 mph - 0.00 in Snow Light Snow
9:24 AM 26.1 °F 13.1 °F 25.0 °F 96% 30.11 in 4.0 mi North 17.3 mph - 0.00 in Snow Light Snow
9:39 AM 27.0 °F 15.2 °F 25.0 °F 92% 30.12 in 6.0 mi North 15.0 mph - 0.00 in   Overcast
9:48 AM 26.6 °F 15.2 °F 24.8 °F 93% 30.12 in 10.0 mi North 13.8 mph - 0.00 in   Mostly Cloudy
9:53 AM 27.0 °F 15.6 °F 25.0 °F 92% 30.19 in 10.0 mi North 13.8 mph - 0.00 in   Mostly Cloudy
10:41 AM 28.0 °F 16.1 °F 24.1 °F 85% 30.14 in 6.0 mi North 16.1 mph - N/A   Overcast
10:51 AM 28.4 °F 17.5 °F 24.8 °F 86% 30.14 in 7.0 mi North 13.8 mph - 0.00 in Snow Light Snow
10:53 AM 28.0 °F 16.5 °F 25.0 °F 88% 30.20 in 8.0 mi North 15.0 mph - 0.00 in   Overcast
11:17 AM 28.0 °F 15.7 °F 25.0 °F 88% 30.14 in 10.0 mi NNE 17.3 mph - N/A   Overcast
11:30 AM 28.0 °F 16.1 °F 24.1 °F 85% 30.14 in 10.0 mi NNE 16.1 mph - N/A   Overcast
11:45 AM 28.0 °F 17.5 °F 24.1 °F 85% 30.14 in 3.0 mi NNE 12.7 mph - 0.00 in Snow Light Snow
11:53 AM 28.0 °F 17.0 °F 24.1 °F 85% 30.21 in 6.0 mi NNE 13.8 mph - 0.00 in Snow Light Snow
11:56 AM 28.0 °F 16.5 °F 24.1 °F 85% 30.14 in 4.0 mi North 15.0 mph - 0.00 in Snow Light Snow
12:01 PM 28.0 °F 17.5 °F 24.1 °F 85% 30.14 in 2.0 mi North 12.7 mph - 0.00 in Snow Light Snow
12:04 PM 28.0 °F 17.5 °F 25.0 °F 88% 30.14 in 1.2 mi NNE 12.7 mph - 0.00 in Snow Light Snow
12:08 PM 28.0 °F 18.6 °F 25.0 °F 88% 30.14 in 1.0 mi North 10.4 mph - 0.00 in Snow Light Snow
12:16 PM 28.0 °F 19.3 °F 25.0 °F 88% 30.14 in 1.5 mi North 9.2 mph - 0.00 in Snow Light Snow
12:22 PM 28.0 °F 18.6 °F 25.0 °F 88% 30.14 in 3.0 mi North 10.4 mph - 0.00 in Snow Light Snow
12:32 PM 28.0 °F 17.5 °F 24.1 °F 85% 30.15 in 2.0 mi NNE 12.7 mph - 0.00 in Snow Light Snow
12:43 PM 27.0 °F 15.2 °F 24.1 °F 89% 30.15 in 7.0 mi North 15.0 mph - 0.00 in Snow Light Snow
12:53 PM 28.0 °F 16.1 °F 25.0 °F 88% 30.22 in 2.5 mi North 16.1 mph - 0.00 in Snow Light Snow
12:57 PM 27.0 °F 15.2 °F 24.1 °F 89% 30.15 in 1.5 mi North 15.0 mph - 0.00 in Snow Light Snow
1:19 PM 27.0 °F 16.1 °F 24.1 °F 89% 30.15 in 1.2 mi North 12.7 mph - 0.00 in Snow Light Snow
1:28 PM 27.0 °F 15.6 °F 24.1 °F 89% 30.15 in 1.0 mi NNE 13.8 mph - 0.00 in Snow Light Snow
1:35 PM 27.0 °F 15.6 °F 24.1 °F 89% 30.15 in 1.5 mi North 13.8 mph - 0.00 in Snow Light Snow
1:41 PM 27.0 °F 15.6 °F 24.1 °F 89% 30.15 in 3.0 mi NNE 13.8 mph - 0.00 in Snow Light Snow
1:53 PM 27.0 °F 15.6 °F 23.0 °F 85% 30.24 in 3.0 mi NNE 13.8 mph - 0.00 in Snow Light Snow
2:01 PM 27.0 °F 15.6 °F 23.0 °F 85% 30.16 in 4.0 mi NNE 13.8 mph - 0.00 in Snow Light Snow
2:22 PM 27.0 °F 16.1 °F 23.0 °F 85% 30.17 in 2.5 mi NE 12.7 mph - 0.00 in Snow Light Snow
2:39 PM 27.0 °F 16.7 °F 23.0 °F 85% 30.19 in 1.2 mi NNE 11.5 mph - 0.00 in Snow Light Snow
2:42 PM 26.1 °F 15.0 °F 23.0 °F 88% 30.19 in 0.8 mi NNE 12.7 mph - 0.00 in Snow Light Snow
2:53 PM 26.1 °F 15.0 °F 24.1 °F 92% 30.27 in 0.2 mi NNE 12.7 mph - 0.00 in Fog , Snow Heavy Snow
3:53 PM 26.1 °F 18.4 °F 24.1 °F 92% 30.31 in 0.8 mi NNW 6.9 mph - 0.04 in Snow Light Snow
4:05 PM 25.0 °F 19.3 °F 24.1 °F 96% 30.22 in 1.0 mi North 4.6 mph - 0.01 in Snow Light Snow
4:09 PM 25.0 °F 20.7 °F 23.0 °F 92% 30.23 in 1.5 mi North 3.5 mph - 0.01 in Snow Light Snow
4:14 PM 25.0 °F 20.7 °F 23.0 °F 92% 30.23 in 3.0 mi NNW 3.5 mph - 0.01 in Snow Light Snow
4:24 PM 25.0 °F 20.7 °F 23.0 °F 92% 30.23 in 7.0 mi NW 3.5 mph - 0.01 in Snow Light Snow
4:45 PM 25.0 °F 19.3 °F 23.0 °F 92% 30.24 in 10.0 mi WNW 4.6 mph - 0.01 in   Overcast
4:53 PM 25.0 °F 17.1 °F 23.0 °F 92% 30.34 in 10.0 mi WNW 6.9 mph - 0.01 in   Overcast
5:53 PM 25.0 °F 17.1 °F 24.1 °F 96% 30.37 in 10.0 mi NW 6.9 mph - N/A   Overcast
6:15 PM 25.0 °F 17.1 °F 23.0 °F 92% 30.27 in 10.0 mi WNW 6.9 mph - N/A   Overcast
6:34 PM 25.0 °F 16.3 °F 24.1 °F 96% 30.28 in 10.0 mi WNW 8.1 mph - N/A   Overcast
6:53 PM 26.1 °F 16.8 °F 23.0 °F 88% 30.38 in 10.0 mi NW 9.2 mph - N/A   Overcast
7:53 PM 19.9 °F 8.6 °F 19.0 °F 96% 30.41 in 10.0 mi West 10.4 mph - N/A   Overcast
8:53 PM 17.1 °F 4.3 °F 16.0 °F 96% 30.43 in 10.0 mi West 11.5 mph - N/A   Clear
9:18 PM 19.0 °F 8.2 °F 18.0 °F 96% 30.27 in 7.0 mi West 9.2 mph - N/A   Mostly Cloudy
9:33 PM 18.0 °F 5.4 °F 16.0 °F 92% 30.27 in 8.0 mi West 11.5 mph - N/A   Scattered Clouds
9:37 PM 18.0 °F 6.1 °F 16.0 °F 92% 30.27 in 1.2 mi West 10.4 mph - N/A   Mostly Cloudy
9:39 PM 17.1 °F 4.3 °F 16.0 °F 96% 30.27 in 0.8 mi West 11.5 mph - N/A   Mostly Cloudy
9:48 PM 15.8 °F 2.7 °F 14.0 °F 93% 30.27 in 0.5 mi West 11.5 mph - N/A Fog Light Freezing Fog
9:53 PM 14.0 °F 0.5 °F 12.9 °F 95% 30.43 in 0.8 mi WSW 11.5 mph - N/A   Mist
9:56 PM 14.0 °F 0.5 °F 12.9 °F 95% 30.27 in 1.2 mi WSW 11.5 mph - N/A   Scattered Clouds
9:58 PM 14.0 °F 0.5 °F 12.9 °F 95% 30.27 in 2.5 mi WSW 11.5 mph - N/A   Scattered Clouds
10:05 PM 14.0 °F 0.5 °F 12.0 °F 92% 30.27 in 8.0 mi WSW 11.5 mph - N/A   Partly Cloudy
10:53 PM 19.0 °F 6.8 °F 17.1 °F 92% 30.39 in 10.0 mi WSW 11.5 mph - N/A   Clear
11:53 PM 19.0 °F 6.1 °F 17.1 °F 92% 30.38 in 10.0 mi WSW 12.7 mph - N/A   Clear